ONEWEB-0541, 55142

Orbit data source: Space-Track

ONEWEB-0541, 55142 is a payload satellite owned by One Web (NAA) (UK) in LEO that was launched on Tue, 10 Jan 2023 UTC via an FALCON 9 launch vehicle from the Air Force Eastern Test Range (AFETR). Payload-class satellites include a variety of spacecraft equipped with specific instruments for various scientific and technological missions. These include communications satellites like Starlink; space stations such as the ISS; scientific satellites like the Hubble; Earth observation satellites from companies like Planet Labs, Umbra, and HawkEye 360; GPS; miniature CubeSats for education and research; and military/defense satellites.

Loading next visibility...
Identifier
55142, 2023-004C
Orbit
LEO
Country
Flag of UKUK
Related business
Manufacturer
One Web
Mission
Operational Commercial Communications
Bus & Motor
ARROW, Unknown motor
Mass
148 kg wet, ~140 kg dry
Launch date (UTC)
2023-01-10 (3 years ago)
Launch vehicle
FALCON 9
Launch site
Air Force Eastern Test Range (AFETR)
Object type
Payload
Rocket body
Debris
Shape & HBR
Trap Box + 2 Pan, 6.7 m
Radar Cross Section
3.464 m², Large (>1 m²)

Expand to show TLE details & history
Last TLE update: 2 days ago

TLE from 2 days ago
0 ONEWEB-0541
1 55142U 23004C   26171.31045365 -.00000626  00000-0 -18020-2 0  9999
2 55142  87.8896  20.4363 0001953  90.4741 269.6611 13.11417269166353
Epoch: 2026-06-20T07:27Z
TLE epoch observation values (Epoch: 2026-06-20T07:27:03.195Z)
Latitude
0.00001°
Longitude
0.14608°
Altitude
1,220.58 km
Speed
7.244 km/s
True Right ascension
01h 21m 44s
True Declination
0° 00' 00"
Sunlit
Object was in daylight at epoch
Visualization orbit readout
Latitude
Unknown
Longitude
Unknown
Altitude
Unknown
Speed
Unknown
Apparent Right ascension
Unknown
Apparent Declination
Unknown
Sunlit
N/A
Visualization observer readout
Local Sidereal Time
23:07:46
Azimuth
Unknown
Elevation
Unknown
Doppler factor
Unknown
Orbital elements
Apogee altitude
1,216.283 km
Perigee altitude
1,213.317 km
Semi-major axis
7,592.937 km
Eccentricity
0.0002
Inclination
87.8896°
RAAN
20.4363°
Arg. of periapsis
90.4741°
True anomaly
269.63872°
Mean anomaly
269.6611°
Eccentric anomaly
269.64991°
Mean motion
3.28041 °/min
Orbital period
109.74 mins
BSTAR
-0.001802
Loading maneuver chart data...
Computing Atmospheric mass density...
Loading historical data...
Loading historical data...
Loading historical data...
Loading historical data...
Loading historical data...
Loading historical data...
Loading historical data...

Documentation

Showing up to 5 results
|